Change the Weather History Date:

Saturday, October 13, 2012

  Actual Average Record
Temperature  
Mean Temperature 34 °F -  
Max Temperature 39 °F 47 °F 62 °F (2003)
Min Temperature 28 °F 33 °F 24 °F (2002)
Degree Days  
Heating Degree Days 32    
Moisture  
Dew Point 31 °F    
Average Humidity 84    
Maximum Humidity 93    
Minimum Humidity 56    
Precipitation  
Precipitation 0.05 in - - ()
Sea Level Pressure  
Sea Level Pressure 29.84 in    
Wind  
Wind Speed 4 mph (SSE)    
Max Wind Speed 10 mph    
Max Gust Speed 17 mph    
Visibility 4 miles    
Events Fog , Rain , Snow    
Averages and records for this station are not official NWS values.
T = Trace of Precipitation, MM = Missing Value Source: NWS Daily Summary

Daily Weather History Graph

Daily Weather History Graph

Search for Another Location

Airport or City:

Trip Planner

Search our weather history database for the weather conditions in past years. The results will help you decide how hot, cold, wet, or windy it might be!

Date:

Astronomy

Oct. 13, 2012 Rise Set
Actual Time 7:18 AM CDT 6:15 PM CDT
Civil Twilight 6:47 AM CDT 6:47 PM CDT
Nautical Twilight 6:11 AM CDT 7:22 PM CDT
Astronomical Twilight 5:35 AM CDT 7:58 PM CDT
Moon 5:01 AM CDT (10/13) 5:03 PM CDT (10/13)
Length of Visible Light 11h 59m
Length of Day
10h 57m
Waning Crescent, 5% of the Moon is Illuminated
Oct 13
Waning Crescent
Oct 15
New
Oct 21
First Quarter
Oct 29
Full
Nov 6
Last Quarter

Hourly Weather History & Observations

Time (CDT) Temp. Windchill Dew Point Humidity Pressure Visibility Wind Dir Wind Speed Gust Speed Precip Events Conditions
12:14 AM 33.8 °F 29.6 °F 28.4 °F 81% 30.05 in 10.0 mi SE 4.6 mph - N/A   Overcast
12:54 AM 35.6 °F 30.7 °F 26.6 °F 70% 30.04 in 10.0 mi SSE 5.8 mph - N/A   Overcast
1:13 AM 35.6 °F 29.9 °F 26.6 °F 70% 30.04 in 10.0 mi SSE 6.9 mph - N/A   Overcast
1:33 AM 37.4 °F 32.1 °F 26.6 °F 65% 30.04 in 10.0 mi South 6.9 mph - N/A   Overcast
1:54 AM 37.4 °F 31.4 °F 26.6 °F 65% 30.04 in 10.0 mi South 8.1 mph - N/A   Overcast
2:13 AM 37.4 °F 30.8 °F 24.8 °F 60% 30.04 in 10.0 mi SSW 9.2 mph - N/A   Overcast
2:34 AM 37.4 °F 32.8 °F 24.8 °F 60% 30.02 in 10.0 mi South 5.8 mph - N/A   Overcast
2:54 AM 37.4 °F 32.8 °F 24.8 °F 60% 30.00 in 10.0 mi South 5.8 mph - N/A   Overcast
3:13 AM 37.4 °F 32.1 °F 24.8 °F 60% 30.00 in 10.0 mi South 6.9 mph - N/A   Overcast
3:34 AM 37.4 °F 32.8 °F 24.8 °F 60% 29.99 in 10.0 mi South 5.8 mph - N/A   Overcast
3:54 AM 37.4 °F 31.4 °F 23.0 °F 56% 29.98 in 10.0 mi South 8.1 mph 17.3 mph N/A   Overcast
4:13 AM 37.4 °F 30.3 °F 26.6 °F 65% 29.97 in 7.0 mi South 10.4 mph 17.3 mph N/A   Drizzle
4:34 AM 33.8 °F 27.7 °F 28.4 °F 81% 29.96 in 4.0 mi SSE 6.9 mph - 0.01 in Rain Rain
4:54 AM 33.8 °F 28.6 °F 30.2 °F 87% 29.95 in 4.0 mi SSE 5.8 mph - 0.02 in Rain Rain
5:13 AM 33.8 °F 28.6 °F 30.2 °F 87% 29.93 in 5.0 mi SSE 5.8 mph - 0.01 in Rain Rain
5:54 AM 33.8 °F 28.6 °F 30.2 °F 87% 29.90 in 3.0 mi SSE 5.8 mph - 0.02 in   Light Drizzle
6:14 AM 33.8 °F 28.6 °F 30.2 °F 87% 29.89 in 4.0 mi SSE 5.8 mph - N/A   Overcast
6:33 AM 33.8 °F 28.6 °F 30.2 °F 87% 29.88 in 4.0 mi SSE 5.8 mph - N/A   Overcast
6:54 AM 33.8 °F 28.6 °F 30.2 °F 87% 29.88 in 3.0 mi SSE 5.8 mph - 0.01 in   Overcast
7:14 AM 33.8 °F 29.6 °F 30.2 °F 87% 29.88 in 2.5 mi SSE 4.6 mph - N/A   Overcast
7:34 AM 33.8 °F 29.6 °F 30.2 °F 87% 29.88 in 1.5 mi SSE 4.6 mph - N/A   Overcast
7:53 AM 33.8 °F 30.8 °F 30.2 °F 87% 29.87 in 0.5 mi SSE 3.5 mph - N/A Fog Fog
8:14 AM 33.8 °F - 30.2 °F 87% 29.86 in 0.2 mi Calm Calm - N/A Fog Fog
8:53 AM 33.8 °F 29.6 °F 30.2 °F 87% 29.85 in 0.2 mi SE 4.6 mph - N/A Fog Fog
9:34 AM 35.6 °F 32.8 °F 32.0 °F 87% 29.83 in 0.2 mi SE 3.5 mph - N/A Fog Fog
9:54 AM 35.6 °F - 33.8 °F 93% 29.82 in 0.2 mi Calm Calm - N/A Fog Fog
10:13 AM 35.6 °F 32.8 °F 33.8 °F 93% 29.82 in 0.2 mi ESE 3.5 mph - N/A Fog Fog
10:34 AM 35.6 °F 32.8 °F 33.8 °F 93% 29.82 in 0.2 mi SE 3.5 mph - N/A Snow Light Snow
10:53 AM 35.6 °F 32.8 °F 33.8 °F 93% 29.82 in 0.2 mi SSE 3.5 mph - N/A Fog Fog
11:14 AM 35.6 °F 31.7 °F 33.8 °F 93% 29.81 in 0.2 mi SE 4.6 mph - N/A Fog Fog
11:33 AM 35.6 °F 31.7 °F 33.8 °F 93% 29.81 in 0.2 mi South 4.6 mph - N/A Fog Fog
11:54 AM 37.4 °F - 33.8 °F 87% 29.80 in 0.2 mi Calm Calm - N/A Fog Fog
12:13 PM 37.4 °F 34.9 °F 33.8 °F 87% 29.80 in 0.2 mi South 3.5 mph - N/A Fog Fog
12:34 PM 37.4 °F - 33.8 °F 87% 29.79 in 0.2 mi Calm Calm - N/A Fog Fog
12:54 PM 37.4 °F - 33.8 °F 87% 29.78 in 0.2 mi Calm Calm - N/A Fog Fog
1:13 PM 37.4 °F - 35.6 °F 93% 29.75 in 0.2 mi Calm Calm - N/A Fog Fog
1:34 PM 37.4 °F - 33.8 °F 87% 29.74 in 0.2 mi Calm Calm - N/A Fog Fog
1:54 PM 37.4 °F - 35.6 °F 93% 29.73 in 0.2 mi Calm Calm - N/A Fog Fog
2:13 PM 37.4 °F - 35.6 °F 93% 29.74 in 2.5 mi Calm Calm - N/A   Overcast
2:34 PM 37.4 °F - 35.6 °F 93% 29.74 in 1.2 mi Calm Calm - N/A   Overcast
2:54 PM 37.4 °F - 35.6 °F 93% 29.74 in 2.0 mi Calm Calm - N/A   Overcast
3:14 PM 37.4 °F - 35.6 °F 93% 29.74 in 4.0 mi Calm Calm - N/A   Overcast
3:34 PM 39.2 °F - 35.6 °F 87% 29.73 in 4.0 mi Calm Calm - N/A   Overcast
3:53 PM 39.2 °F - 35.6 °F 87% 29.73 in 4.0 mi Calm Calm - N/A   Overcast
4:13 PM 39.2 °F - 35.6 °F 87% 29.73 in 5.0 mi Calm Calm - N/A   Overcast
4:34 PM 39.2 °F - 35.6 °F 87% 29.73 in 7.0 mi Calm Calm - N/A   Overcast
4:54 PM 39.2 °F - 35.6 °F 87% 29.73 in 7.0 mi Calm Calm - N/A   Overcast
5:14 PM 39.2 °F - 35.6 °F 87% 29.74 in 5.0 mi Calm Calm - N/A   Overcast
5:54 PM 39.2 °F - 37.4 °F 93% 29.75 in 5.0 mi Calm Calm - N/A   Overcast
6:13 PM 39.2 °F - 35.6 °F 87% 29.75 in 5.0 mi Calm Calm - N/A   Overcast
6:34 PM 37.4 °F - 35.6 °F 93% 29.75 in 4.0 mi Calm Calm - N/A   Mostly Cloudy
6:54 PM 37.4 °F - 33.8 °F 87% 29.75 in 0.8 mi Calm Calm - N/A   Mostly Cloudy
7:34 PM 33.8 °F - 30.2 °F 87% 29.76 in 0.2 mi Calm Calm - N/A Fog Fog
7:54 PM 33.8 °F 30.8 °F 30.2 °F 87% 29.76 in 1.8 mi NW 3.5 mph - N/A   Mostly Cloudy
8:54 PM 28.4 °F 22.2 °F 26.6 °F 93% 29.78 in 1.5 mi NNW 5.8 mph - N/A   Mostly Cloudy
9:13 PM 30.2 °F 25.4 °F 26.6 °F 86% 29.78 in 4.0 mi North 4.6 mph - N/A   Clear
9:34 PM 30.2 °F 25.4 °F 28.4 °F 93% 29.79 in 2.0 mi NNW 4.6 mph - N/A   Clear
9:53 PM 30.2 °F 24.3 °F 28.4 °F 93% 29.79 in 2.5 mi NNW 5.8 mph - N/A   Clear
10:14 PM 33.8 °F 29.6 °F 30.2 °F 87% 29.79 in 2.0 mi NNW 4.6 mph - N/A   Clear
11:13 PM 30.2 °F 25.4 °F 26.6 °F 86% 29.81 in 4.0 mi NNW 4.6 mph - N/A   Clear
11:34 PM 28.4 °F 23.3 °F 26.6 °F 93% 29.81 in 4.0 mi NNW 4.6 mph - N/A   Clear